Regional Weather Roundup
Issued by NWS

Home | Current Version | Previous Version | Graphics & Text | Print | Product List | Glossary Off
Versions: 1 2 3 4 5 6 7 8 9 10 11 12 13 14 15 16 17 18 19 20 21 22 23 24 25 26 27 28 29 30 31 32 33 34 35 36 37 38 39 40 41 42 43 44 45 46 47 48 49 50

000
ASUS43 KTOP 231108
RWRKS

WEATHER ROUNDUP FOR KANSAS
NATIONAL WEATHER SERVICE GOODLAND KS
600 AM CDT MON APR 23 2018

NOTE:  "FAIR" INDICATES FEW OR NO CLOUDS BELOW 12,000 FEET WITH NO
SIGNIFICANT WEATHER AND/OR OBSTRUCTIONS TO VISIBILITY.

KSZ001>006-013>018-027>032-041>047-231200-
NORTHWEST KANSAS

CITY           SKY/WX    TMP DP  RH WIND       PRES   REMARKS
GOODLAND       CLEAR     32  30  92 S7        30.15S
HAYS           CLOUDY    45  40  82 NW8       30.16S
HILL CITY      MOCLDY    41  38  89 W8        30.17S
RUSSELL        CLEAR     45  43  93 N9        30.15R
$$

KSZ061>065-074>080-084>089-231200-
SOUTHWEST KANSAS

CITY           SKY/WX    TMP DP  RH WIND       PRES   REMARKS
DODGE CITY     CLOUDY    44  38  79 NW5       30.16R
ELKHART        CLEAR     40  38  92 SW5       30.18R
GARDEN CITY    CLEAR     38  34  85 CALM      30.16S
GREAT BEND     PTCLDY    47  43  86 NW8       30.16R
LIBERAL        CLOUDY    36  33  89 NW3       30.17F
PRATT          CLOUDY    49  42  77 N6        30.14R
$$

KSZ066>073-081>083-090>101-231200-
SOUTHEAST KANSAS

CITY           SKY/WX    TMP DP  RH WIND       PRES   REMARKS
CHANUTE        CLOUDY    52  41  66 N9        30.06R
COFFEYVILLE    PTCLDY    52  47  83 N10       30.04R
HUTCHINSON     CLEAR     48  40  73 N12       30.12R
MEDICINE LODGE   N/A     52  44  74 NW6       30.12R
WICHITA INTL   PTCLDY    49  45  86 N9        30.10R
WICHITA JABRA  CLEAR     45  42  89 N9        30.10R
WICHITA MCCONL CLEAR     45  41  87 N9        30.10R
WINFIELD       CLEAR     44  44 100 N6        30.10R
$$

KSZ007>012-019>026-033>040-048>060-102>105-231200-
NORTHEAST KANSAS

CITY           SKY/WX    TMP DP  RH WIND       PRES   REMARKS
CONCORDIA      PTCLDY    42  37  82 CALM      30.15R
EMPORIA        CLOUDY    51  40  65 N3        30.09R
LAWRENCE       CLOUDY    55  30  38 NE8       30.10R
MANHATTAN      CLEAR     42  39  89 CALM      30.13
MARYSVILLE     PTCLDY    36  34  93 N3        30.15S
OLATHE IND     CLOUDY    55  32  41 N8        30.10R
OLATHE EXE     CLOUDY    55  30  38 NE8       30.09R
SALINA         CLEAR     44  40  85 N5        30.14S
TOPEKA BILLARD CLOUDY    51  35  54 CALM      30.11R
TOPEKA FORBES  CLOUDY    52  37  56 N7        30.11R
$$




USA.gov is the U.S. government's official web portal to all federal, state and local government web resources and services.